Flag for Grenada Weather past 2 weeks in Saint George's, Grenada

Now
84 °F

Passing clouds.


Feels Like: 94 °F
Forecast: N/A
Wind: 13 mph from Southeast

Location: Point Salines Airport

Current Time: Jul 25, 2014 at 5:44:30 PM

Latest Report: Jul 25, 2014 at 5:00 PM


Visibility: N/A

Pressure: 29.89 "Hg

Humidity: 79%

Dew point: 77 °F

Location of Saint George'sLocation

Historic Weather in Saint George's — Graph

°F

Saint George's temperature yesterday

Maximum temperature yesterday: 86 °F (at 12:00 PM)
Minimum temperature yesterday: 79 °F (at 12:00 AM)
Average temperature yesterday: 82 °F

Past Weeks' High & Low Weather Summary

 TemperatureHumidityPressure
High86 °F (Jul 12, 11:00 AM)100% (Jul 14, 2:00 AM)30.09 "Hg (Jul 14, 2:00 AM)
Low72 °F (Jul 25, 2:00 AM)66% (Jul 12, 11:00 AM)29.86 "Hg (Jul 25, 4:00 PM)
Average82 °F83%29.99 "Hg
* Reported Jul 10 4:00 PM — Jul 25 4:00 PM, Saint George's, Weather by CustomWeather, © 2014

Note: Actual official high and low records may vary slightly from our data, if they occured in-between our weather recording intervals... More about our weather records

Advertising

Saint George's weather history for previous 24 hours

 ConditionsComfort  
Time TempWeatherWind HumidityBarometerVisibility
4:00 PM
Jul 25
86 °FScattered clouds.20 mph75%29.86 "HgN/A
3:00 PM86 °FPassing clouds.21 mph75%29.89 "HgN/A
2:00 PM86 °FBroken clouds.21 mph79%29.92 "HgN/A
12:00 PM86 °FPartly sunny.18 mph70%29.95 "HgN/A
11:00 AM86 °FScattered clouds.17 mph70%29.98 "HgN/A
10:00 AM82 °FScattered clouds.16 mph84%29.98 "HgN/A
9:00 AM82 °FScattered clouds.17 mph84%29.98 "HgN/A
8:00 AM81 °FScattered clouds.9 mph89%29.98 "HgN/A
7:00 AM77 °FBroken clouds.6 mph94%29.95 "HgN/A
6:00 AM75 °FScattered clouds.6 mph100%29.92 "HgN/A
5:00 AM75 °FLight rain. Passing clouds.7 mph94%29.92 "HgN/A
4:00 AM73 °FSprinkles. Passing clouds.9 mph94%29.95 "HgN/A
3:00 AM73 °FSprinkles. Passing clouds.10 mph94%29.92 "HgN/A
2:00 AM72 °FThunderstorms. Partly cloudy.16 mph100%29.95 "Hg5 mi
1:00 AM79 °FThundershowers. Passing clouds.9 mph94%29.98 "HgN/A
12:00 AM79 °FSprinkles. Partly cloudy.No wind89%29.98 "Hg5 mi
11:00 PM
Jul 24
79 °FPassing clouds.No wind89%29.98 "HgN/A
10:00 PM79 °FPassing clouds.6 mph84%29.98 "HgN/A
9:00 PM79 °FPassing clouds.6 mph84%29.98 "HgN/A
8:00 PM81 °FPassing clouds.7 mph84%29.95 "HgN/A
7:00 PM81 °FPassing clouds.12 mph84%29.92 "HgN/A
6:00 PM84 °FPassing clouds.12 mph74%29.92 "HgN/A
5:00 PM84 °FPassing clouds.16 mph74%29.92 "HgN/A
Weather by CustomWeather, © 2014

See weather overviewHow to use our weather pages